GW5533 Weather Reports


time (UTC)temp
C
wind
direction
speed
KPH
gust
KPH
rain 1hr
cm
rain 24hr
cm
rain mn
cm
humidity
%
barometer
mb
20260506081015 17 127 19.3 40.2 0.15 2.31 2.31 87 1008.9
20260506080536 17 151 16.1 32.2 0.15 2.31 2.31 87 1008.9
20260506073515 17 131 17.7 32.2 0.00 2.18 2.16 87 1009.2
20260506073015 17 121 16.1 32.2 0.00 2.18 2.16 87 1009.2
20260506072515 17 138 12.9 32.2 0.00 2.18 2.16 88 1009.2
20260506072015 17 134 17.7 33.8 0.00 2.18 2.16 88 1009.2
20260506071515 17 144 16.1 33.8 0.00 2.18 2.16 88 1009.1
20260506071015 17 146 12.9 25.7 0.00 2.18 2.16 88 1009.1
20260506070535 17 142 11.3 24.1 0.00 2.18 2.16 88 1009.1
20260506062015 17 156 14.5 49.9 0.00 2.24 2.16 89 1009.1
20260506061515 17 181 19.3 49.9 0.00 2.26 2.16 89 1009.0
20260506061015 17 147 9.7 41.8 0.03 2.26 2.16 89 1008.8
20260506060515 17 174 19.3 41.8 0.03 2.29 2.16 89 1008.5
20260506051015 16 140 14.5 40.2 0.13 2.69 2.13 91 1008.9
20260506050515 16 154 9.7 25.7 0.13 2.72 2.13 91 1008.8
20260506045015 16 167 17.7 43.5 0.10 2.84 2.11 91 1008.9
20260506044535 16 157 19.3 40.2 0.08 2.87 2.11 91 1008.7
20260506044015 16 140 16.1 29.0 0.08 2.87 2.11 91 1008.7
20260506043515 16 169 9.7 24.1 0.05 2.90 2.06 91 1008.9
20260506043035 16 288 6.4 17.7 0.05 2.92 2.03 91 1008.8
20260506042515 16 227 6.4 14.5 0.03 2.95 2.03 91 1008.7
20260506042015 16 101 4.8 12.9 0.43 3.02 2.03 91 1008.6
20260506041515 16 120 6.4 12.9 0.86 3.12 2.03 91 1008.7
20260506041015 16 113 1.6 9.7 0.89 3.23 2.03 90 1008.8
20260506040515 16 93 0.0 4.8 0.89 3.25 2.03 90 1008.8
20260506040015 16 89 3.2 4.8 0.94 3.28 2.03 90 1009.0
20260506035515 16 91 0.0 4.8 0.94 3.30 2.03 90 1009.1
20260506035015 16 0.0 0.0 0.94 3.33 2.03 90 1009.2
20260506034515 16 0.0 3.2 0.97 3.38 2.03 90 1009.3
20260506034035 16 119 0.0 11.3 1.14 3.43 2.03 90 1009.3
20260506033515 16 105 4.8 16.1 1.17 3.51 2.03 90 1009.3
20260506033015 16 164 8.0 25.7 1.14 3.51 2.01 90 1009.3
20260506032515 17 128 14.5 38.6 1.14 3.51 2.01 90 1009.2
20260506032015 17 189 22.5 38.6 0.74 3.10 1.60 90 1009.4
20260506031515 16 182 17.7 41.8 0.36 2.67 1.17 91 1009.2
20260506031015 16 217 19.3 41.8 0.36 2.64 1.14 91 1009.2
20260506030515 16 186 14.5 40.2 0.36 2.64 1.14 91 1009.0
20260506030015 16 169 8.0 20.9 0.33 2.59 1.09 91 1009.0
20260506025515 16 288 8.0 20.9 0.36 2.59 1.09 91 1009.0
20260506025035 16 174 6.4 29.0 0.46 2.64 1.09 91 1008.9
20260506024514 15 106 12.9 29.0 0.43 2.62 1.07 91 1008.8
20260506024055 15 119 3.2 14.5 0.30 2.49 0.89 90 1008.7
20260506023515 15 88 4.8 14.5 0.30 2.49 0.86 90 1008.6
20260506023015 15 103 6.4 14.5 0.33 2.49 0.86 90 1008.7
20260506022515 15 114 4.8 11.3 0.33 2.51 0.86 90 1008.8
20260506022015 15 126 6.4 11.3 0.33 2.57 0.86 90 1009.0
20260506021535 15 117 4.8 11.3 0.25 2.51 0.79 90 1009.1
20260506021034 15 109 4.8 16.1 0.23 2.54 0.79 90 1009.2
20260506020534 15 81 6.4 16.1 0.23 2.59 0.79 90 1009.4
20260506020055 15 72 4.8 16.1 0.20 2.59 0.74 90 1009.6
20260506015514 15 80 8.0 16.1 0.18 2.59 0.71 90 1009.5
20260506015015 15 77 8.0 16.1 0.08 2.51 0.61 90 1009.5
20260506014554 15 77 4.8 12.9 0.08 2.54 0.61 90 1009.7
20260506014015 16 123 4.8 12.9 0.05 2.54 0.58 90 1010.0
20260506013514 15 77 3.2 6.4 0.03 2.54 0.56 90 1009.8
20260506013034 16 73 3.2 6.4 0.00 2.54 0.53 90 1009.9
20260506012514 16 100 3.2 6.4 0.00 2.54 0.53 89 1010.1
20260506012014 16 106 1.6 6.4 0.00 2.54 0.53 89 1010.0
20260506011535 16 69 1.6 6.4 0.00 2.57 0.53 89 1009.9
20260506011015 16 74 1.6 4.8 0.00 2.59 0.53 89 1010.1
20260506010515 16 85 1.6 6.4 0.03 2.59 0.53 89 1010.2
20260506010014 16 112 3.2 6.4 0.03 2.62 0.53 89 1010.3
20260506005514 16 98 1.6 9.7 0.05 2.64 0.53 89 1010.2
20260506005016 16 107 4.8 12.9 0.15 2.64 0.53 89 1010.3
20260506004536 16 109 6.4 12.9 0.23 2.64 0.53 89 1010.4
20260506004015 16 105 3.2 9.7 0.43 2.64 0.53 89 1010.6
20260506003516 16 84 3.2 11.3 0.51 2.64 0.53 89 1010.6
20260506003016 16 107 6.4 12.9 0.53 2.64 0.53 88 1010.7
20260506002516 16 108 4.8 14.5 0.53 2.64 0.53 88 1010.5
20260506002016 16 101 8.0 14.5 0.53 2.64 0.53 88 1010.7
20260506001517 16 119 6.4 16.1 0.53 2.64 0.53 88 1010.8
20260506001016 16 117 4.8 16.1 0.53 2.64 0.53 88 1010.8
20260506000517 16 99 4.8 14.5 0.51 2.62 0.51 87 1010.6
20260506000037 16 129 1.6 9.7 0.51 2.62 0.51 87 1010.7
20260505235516 16 117 3.2 14.5 0.51 2.59 0.51 87 1010.8
20260505235016 16 37 6.4 24.1 0.38 2.49 0.38 86 1010.9
20260505234517 16 109 9.7 24.1 0.33 2.41 0.33 85 1011.1
20260505234016 16 171 6.4 17.7 0.10 2.21 0.10 84 1011.0
20260505233517 16 59 3.2 11.3 0.03 2.11 0.03 84 1010.9
20260505233056 16 112 3.2 11.3 0.00 2.11 0.00 83 1011.0
20260505232516 16 143 1.6 6.4 0.00 2.11 0.00 83 1011.0
20260505232017 16 109 3.2 8.0 0.00 2.11 0.00 83 1011.0
20260505231516 16 117 3.2 8.0 0.00 2.11 0.00 83 1011.3
20260505231037 16 124 3.2 8.0 0.00 2.11 0.00 82 1011.4
20260505230516 16 111 3.2 8.0 0.00 2.11 0.00 82 1011.5
20260505230016 16 99 3.2 8.0 0.00 2.11 0.00 82 1011.5
20260505225537 16 90 3.2 6.4 0.00 2.11 0.00 82 1011.6
20260505225016 16 88 3.2 8.0 0.00 2.11 0.00 82 1011.6
20260505224516 16 89 1.6 8.0 0.00 2.11 0.00 82 1011.8
20260505224016 16 76 3.2 8.0 0.00 2.11 0.00 82 1011.9
20260505223517 16 72 3.2 8.0 0.00 2.11 0.00 82 1012.0
20260505223016 16 77 3.2 8.0 0.00 2.11 0.00 82 1012.0
20260505222536 16 91 3.2 8.0 0.00 2.11 0.00 83 1012.1
20260505222036 16 88 1.6 6.4 0.00 2.11 0.00 83 1012.1
20260505221536 16 83 3.2 6.4 0.00 2.11 0.00 83 1012.2
20260505221036 16 107 3.2 9.7 0.00 2.11 0.00 83 1012.1
20260505220516 16 118 4.8 9.7 0.00 2.11 0.00 83 1012.0
20260505220016 16 104 1.6 6.4 0.00 2.11 2.11 83 1012.0
20260505215517 16 90 1.6 9.7 0.00 2.11 2.11 83 1012.1
20260505215016 16 120 3.2 9.7 0.00 2.11 2.11 83 1012.1
20260505214536 16 98 3.2 8.0 0.00 2.11 2.11 83 1012.3
20260505214037 16 103 3.2 8.0 0.00 2.11 2.11 83 1012.3
20260505213516 16 115 1.6 6.4 0.00 2.11 2.11 84 1012.4
20260505213117 16 118 1.6 6.4 0.00 2.11 2.11 84 1012.4
20260505212516 16 112 3.2 9.7 0.00 2.11 2.11 84 1012.5
20260505212016 16 101 3.2 9.7 0.00 2.11 2.11 84 1012.5
20260505211516 16 121 4.8 9.7 0.00 2.11 2.11 84 1012.4
20260505211017 16 128 4.8 8.0 0.00 2.11 2.11 84 1012.4
20260505210517 16 123 3.2 6.4 0.00 2.11 2.11 84 1012.5
20260505210016 16 102 3.2 11.3 0.00 2.11 2.11 84 1012.5
20260505205516 16 120 4.8 11.3 0.00 2.11 2.11 85 1012.6
20260505205016 16 122 3.2 6.4 0.00 2.11 2.11 85 1012.6
20260505204516 16 109 3.2 6.4 0.00 2.11 2.11 84 1012.8
20260505204024 16 102 3.2 9.7 0.00 2.11 2.11 84 1012.8
20260505203516 16 99 4.8 9.7 0.00 2.11 2.11 84 1012.8
20260505203017 16 112 3.2 8.0 0.00 2.11 2.11 84 1012.8
20260505202517 16 110 3.2 8.0 0.00 2.11 2.11 84 1012.8
20260505202017 16 75 1.6 6.4 0.00 2.11 2.11 84 1012.9
20260505201516 16 83 3.2 6.4 0.00 2.11 2.11 84 1013.0
20260505201016 16 67 3.2 6.4 0.00 2.11 2.11 83 1013.0
20260505200516 16 80 3.2 6.4 0.00 2.11 2.11 83 1013.0
20260505200016 17 90 3.2 8.0 0.00 2.11 2.11 83 1012.9
20260505195517 17 84 4.8 8.0 0.00 2.11 2.11 82 1012.9
20260505195016 17 92 0.0 3.2 0.00 2.11 2.11 82 1012.9
20260505194517 17 132 0.0 3.2 0.00 2.11 2.11 82 1012.9
20260505194037 17 149 1.6 3.2 0.00 2.11 2.11 82 1012.9
20260505193516 17 123 0.0 4.8 0.00 2.11 2.11 82 1012.8
20260505193016 17 135 1.6 4.8 0.00 2.11 2.11 81 1012.8
20260505192516 17 87 0.0 4.8 0.00 2.11 2.11 81 1012.8
20260505192016 17 77 3.2 4.8 0.00 2.11 2.11 81 1012.7
20260505191516 17 68 1.6 6.4 0.00 2.11 2.11 81 1012.6
20260505191016 17 99 4.8 6.4 0.00 2.11 2.11 81 1012.5
20260505190517 17 127 3.2 12.9 0.00 2.11 2.11 81 1012.6
20260505190017 17 119 4.8 12.9 0.00 2.11 2.11 80 1012.5
20260505185516 17 129 1.6 8.0 0.00 2.11 2.11 80 1012.4
20260505185036 17 151 1.6 8.0 0.00 2.11 2.11 80 1012.5
20260505184517 18 106 3.2 11.3 0.00 2.11 2.11 79 1012.5
20260505184016 18 155 3.2 11.3 0.00 2.11 2.11 79 1012.6
20260505183536 18 141 3.2 8.0 0.00 2.11 2.11 79 1012.6
20260505183017 18 101 3.2 8.0 0.00 2.11 2.11 79 1012.5
20260505182516 18 108 3.2 8.0 0.00 2.11 2.11 78 1012.5
20260505182016 18 126 3.2 12.9 0.00 2.11 2.11 78 1012.4
20260505181516 18 145 6.4 17.7 0.00 2.11 2.11 78 1012.5
20260505181036 18 146 8.0 17.7 0.00 2.11 2.11 78 1012.5
20260505180516 18 154 9.7 19.3 0.00 2.11 2.11 78 1012.4
20260505180036 18 145 8.0 16.1 0.00 2.11 2.11 78 1012.4
20260505175516 18 159 8.0 16.1 0.00 2.11 2.11 79 1012.4
20260505175036 18 162 8.0 16.1 0.00 2.11 2.11 79 1012.4
20260505174536 18 158 4.8 19.3 0.00 2.11 2.11 79 1012.4
20260505174036 18 155 9.7 19.3 0.00 2.11 2.11 79 1012.5
20260505173516 18 164 9.7 19.3 0.00 2.11 2.11 79 1012.5
20260505173017 18 153 9.7 22.5 0.00 2.11 2.11 79 1012.4
20260505172516 18 166 11.3 27.4 0.00 2.11 2.11 78 1012.3
20260505172036 18 166 9.7 27.4 0.00 2.11 2.11 77 1012.2
20260505171516 19 154 8.0 20.9 0.00 2.11 2.11 77 1012.2
20260505171016 19 143 8.0 19.3 0.00 2.11 2.11 77 1012.1
20260505170516 19 140 8.0 19.3 0.00 2.11 2.11 77 1012.1
20260505170016 19 125 11.3 19.3 0.00 2.11 2.11 77 1012.1
20260505165516 19 129 8.0 17.7 0.00 2.11 2.11 77 1012.1
20260505165016 19 128 9.7 19.3 0.00 2.11 2.11 77 1012.1
20260505164516 19 114 9.7 22.5 0.00 2.11 2.11 76 1012.1
20260505164016 19 120 12.9 22.5 0.00 2.11 2.11 76 1012.1
20260505163516 20 119 9.7 19.3 0.00 2.11 2.11 75 1012.1
20260505163016 20 121 9.7 17.7 0.00 2.11 2.11 75 1012.1
20260505162516 20 122 8.0 19.3 0.00 2.11 2.11 75 1012.2
20260505162016 20 125 9.7 19.3 0.00 2.11 2.11 74 1012.2
20260505161516 20 124 8.0 16.1 0.00 2.11 2.11 74 1012.2
20260505161016 20 134 8.0 17.7 0.00 2.11 2.11 75 1012.3
20260505160516 20 145 8.0 17.7 0.00 2.11 2.11 75 1012.4
20260505153036 20 167 11.3 22.5 0.00 2.11 2.11 74 1012.7
20260505152516 20 180 11.3 22.5 0.00 2.11 2.11 73 1012.7
20260505152016 20 168 9.7 19.3 0.00 2.11 2.11 72 1012.7
20260505151516 20 139 6.4 24.1 0.00 2.11 2.11 72 1012.6
20260505151036 20 152 9.7 24.1 0.00 2.11 2.11 71 1012.7
20260505150516 20 149 8.0 16.1 0.00 2.11 2.11 70 1012.7
20260505140516 20 113 11.3 19.3 0.00 2.11 2.11 72 1012.7
20260505125016 20 167 11.3 30.6 0.00 2.11 2.11 75 1012.8
20260505124516 20 123 12.9 27.4 0.00 2.11 2.11 75 1012.8
20260505124015 20 132 12.9 27.4 0.00 2.11 2.11 75 1012.8
20260505123515 20 110 12.9 25.7 0.00 2.11 2.11 75 1012.8
20260505123016 20 113 12.9 29.0 0.00 2.11 2.11 75 1012.8
20260505122516 20 121 12.9 29.0 0.00 2.11 2.11 75 1012.8
20260505122036 20 132 11.3 24.1 0.00 2.11 2.11 75 1012.8
20260505121536 19 124 9.7 24.1 0.00 2.11 2.11 76 1012.8
20260505121015 19 140 11.3 20.9 0.00 2.11 2.11 76 1012.8
20260505120515 19 102 9.7 17.7 0.00 2.11 2.11 75 1012.8
20260505120015 20 113 8.0 19.3 0.00 2.11 2.11 74 1012.8
20260505115535 20 137 9.7 22.5 0.00 2.11 2.11 75 1012.7
20260505115015 20 89 6.4 22.5 0.00 2.11 2.11 75 1012.8
20260505114515 20 90 8.0 19.3 0.00 2.11 2.11 77 1012.7
20260505114015 19 102 4.8 20.9 0.00 2.11 2.11 79 1012.8
20260505113517 19 121 9.7 22.5 0.00 2.11 2.11 78 1012.9
20260505113015 19 145 8.0 22.5 0.00 2.11 2.11 79 1013.0
20260505112516 19 126 9.7 25.7 0.00 2.11 2.11 79 1012.9
20260505112015 18 131 8.0 27.4 0.00 2.11 2.11 79 1012.8
20260505111516 19 132 8.0 27.4 0.00 2.11 2.11 79 1012.8
20260505111015 19 133 11.3 20.9 0.00 2.11 2.11 79 1012.8
20260505110515 19 144 8.0 17.7 0.00 2.11 2.11 79 1012.7
20260505102015 19 110 8.0 20.9 0.03 2.11 2.11 82 1012.6
20260505101536 18 116 9.7 19.3 0.03 2.11 2.11 83 1012.6
20260505101035 18 109 9.7 20.9 0.03 2.11 2.11 83 1012.5
20260505100515 18 108 11.3 20.9 0.03 2.11 2.11 84 1012.5
20260505100016 18 114 11.3 22.5 0.03 2.11 2.11 84 1012.5
20260505095515 18 125 11.3 22.5 0.03 2.11 2.11 85 1012.3
20260505095016 17 126 8.0 20.9 0.03 2.11 2.11 86 1012.1
20260505094515 17 123 3.2 16.1 0.00 2.08 2.08 85 1012.1
20260505094035 16 136 4.8 16.1 0.00 2.08 2.08 84 1012.2
20260505093515 16 179 1.6 6.4 0.00 2.08 2.08 84 1012.2
20260505093015 16 174 1.6 6.4 0.00 2.08 2.08 85 1012.2
20260505092515 16 92 0.0 4.8 0.00 2.08 2.08 85 1012.1
20260505092015 16 66 1.6 6.4 0.00 2.08 2.08 85 1012.1
20260505091516 16 69 3.2 6.4 0.00 2.08 2.08 85 1012.1
20260505091035 16 79 1.6 8.0 0.00 2.08 2.08 86 1012.1
20260505090516 16 105 1.6 8.0 0.00 2.08 2.08 86 1012.2
20260505090015 16 82 4.8 11.3 0.00 2.08 2.08 86 1012.2
20260505085515 16 82 4.8 11.3 0.00 2.08 2.08 87 1012.1
20260505085015 16 69 3.2 8.0 0.00 2.08 2.08 87 1012.1
20260505084515 16 76 3.2 12.9 0.00 2.08 2.08 88 1012.0
20260505084015 16 97 3.2 12.9 0.00 2.08 2.08 88 1012.0
20260505083515 15 91 4.8 14.5 0.00 2.08 2.08 88 1012.0
20260505083015 15 89 6.4 14.5 0.00 2.08 2.08 89 1012.0
20260505082515 15 71 3.2 12.9 0.00 2.08 2.08 89 1011.9
20260505082015 15 72 4.8 12.9 0.00 2.08 2.08 90 1011.8
20260505081515 15 73 4.8 11.3 0.00 2.08 2.08 90 1011.7